• Em Portugal
  • Lista de países
  • Para 7 dias
  • Temperatura da água
  • Mapas de satélite
  • Mapa do tempo
  • Widgets de tempo
  • user-avatar
    Iniciar Sessão

    Previsão horária em Hrazdan

    Hoje, 20 Janeiro, Sábado

    Tempo Temperatura Precipitação Vento Pressão Humidade
    00:00 -4°C° 0,1 mm 2 m/s 605 mmHg 85%
    01:00 -4°C° 0,1 mm 2 m/s 606 mmHg 86%
    02:00 -4°C° 0,1 mm 2 m/s 606 mmHg 88%
    03:00 -2°C° 0 mm 3 m/s 606 mmHg 90%
    04:00 -2°C° 0,7 mm 2 m/s 607 mmHg 90%
    05:00 -3°C° 0,7 mm 2 m/s 607 mmHg 90%
    06:00 -3°C° 0,7 mm 2 m/s 608 mmHg 91%
    07:00 -3°C° 0,4 mm 2 m/s 608 mmHg 89%
    08:00 -1°C° 0,4 mm 1 m/s 609 mmHg 88%
    09:00 0°C° 0 mm 1 m/s 609 mmHg 87%
    10:00 +1°C° 0,1 mm 1 m/s 609 mmHg 84%
    11:00 +1°C° 0,1 mm 1 m/s 610 mmHg 82%
    12:00 +2°C° 0,1 mm 1 m/s 610 mmHg 79%
    13:00 +2°C° 0 mm 1 m/s 610 mmHg 79%
    14:00 +2°C° 0 mm 1 m/s 610 mmHg 78%
    15:00 +2°C° 0 mm 1 m/s 610 mmHg 76%
    16:00 0°C° 0 mm 1 m/s 611 mmHg 78%
    17:00 -1°C° 0 mm 1 m/s 611 mmHg 79%
    18:00 -2°C° 0 mm 1 m/s 611 mmHg 81%
    19:00 -3°C° 0 mm 1 m/s 611 mmHg 80%
    20:00 -3°C° 0 mm 1 m/s 611 mmHg 79%
    21:00 -3°C° 0 mm 1 m/s 611 mmHg 79%
    22:00 -4°C° 0 mm 1 m/s 611 mmHg 79%
    23:00 -6°C° 0 mm 2 m/s 611 mmHg 79%

    Amanhã, 21 Janeiro, Domingo

    Tempo Temperatura Precipitação Vento Pressão Humidade
    00:00 -6°C° 0 mm 2 m/s 612 mmHg 79%
    01:00 -6°C° 0 mm 2 m/s 612 mmHg 79%
    02:00 -6°C° 0 mm 2 m/s 611 mmHg 78%
    03:00 -6°C° 0 mm 2 m/s 611 mmHg 78%
    04:00 -6°C° 0 mm 2 m/s 611 mmHg 78%
    05:00 -6°C° 0 mm 2 m/s 611 mmHg 77%
    06:00 -6°C° 0 mm 2 m/s 611 mmHg 77%
    07:00 -6°C° 0 mm 2 m/s 612 mmHg 75%
    08:00 -5°C° 0 mm 2 m/s 612 mmHg 74%
    09:00 -4°C° 0 mm 2 m/s 612 mmHg 73%
    10:00 -4°C° 0 mm 3 m/s 612 mmHg 71%
    11:00 -2°C° 0 mm 3 m/s 612 mmHg 69%
    12:00 0°C° 0 mm 3 m/s 612 mmHg 67%
    13:00 0°C° 0 mm 3 m/s 612 mmHg 67%
    14:00 0°C° 0 mm 3 m/s 612 mmHg 67%
    15:00 0°C° 0 mm 3 m/s 612 mmHg 67%
    16:00 -2°C° 0 mm 2 m/s 612 mmHg 67%
    17:00 -3°C° 0 mm 2 m/s 612 mmHg 67%
    18:00 -5°C° 0 mm 2 m/s 611 mmHg 67%
    19:00 -5°C° 0 mm 2 m/s 611 mmHg 66%
    20:00 -5°C° 0 mm 2 m/s 611 mmHg 65%
    21:00 -5°C° 0 mm 2 m/s 611 mmHg 64%
    22:00 -5°C° 0 mm 2 m/s 611 mmHg 64%
    23:00 -5°C° 0 mm 2 m/s 611 mmHg 64%

    Depois de amanhã, 22 Janeiro, Segunda-feira

    Tempo Temperatura Precipitação Vento Pressão Humidade
    00:00 -5°C° 0 mm 2 m/s 611 mmHg 64%
    01:00 -5°C° 0 mm 2 m/s 610 mmHg 63%
    02:00 -5°C° 0 mm 2 m/s 610 mmHg 62%
    03:00 -5°C° 0 mm 2 m/s 610 mmHg 62%
    04:00 -5°C° 0 mm 2 m/s 610 mmHg 61%
    05:00 -5°C° 0 mm 2 m/s 609 mmHg 61%
    06:00 -5°C° 0 mm 2 m/s 609 mmHg 60%
    07:00 -4°C° 0 mm 2 m/s 609 mmHg 60%
    08:00 -4°C° 0 mm 2 m/s 609 mmHg 60%
    09:00 -3°C° 0 mm 2 m/s 609 mmHg 60%
    10:00 -2°C° 0 mm 2 m/s 609 mmHg 60%
    11:00 +1°C° 0 mm 2 m/s 609 mmHg 60%
    12:00 +2°C° 0 mm 2 m/s 609 mmHg 60%
    13:00 +2°C° 0 mm 2 m/s 608 mmHg 61%
    14:00 +2°C° 0 mm 2 m/s 608 mmHg 61%
    15:00 +1°C° 0 mm 2 m/s 607 mmHg 62%
    16:00 -1°C° 0 mm 2 m/s 607 mmHg 60%
    17:00 -3°C° 0 mm 2 m/s 606 mmHg 58%
    18:00 -4°C° 0 mm 2 m/s 606 mmHg 56%
    19:00 -5°C° 0 mm 2 m/s 606 mmHg 55%
    20:00 -5°C° 0 mm 2 m/s 606 mmHg 54%
    21:00 -5°C° 0 mm 2 m/s 606 mmHg 53%
    22:00 -6°C° 0 mm 2 m/s 606 mmHg 55%
    23:00 -6°C° 0 mm 2 m/s 606 mmHg 56%

    23 Janeiro, Terça-feira

    Tempo Temperatura Precipitação Vento Pressão Humidade
    00:00 -6°C° 0 mm 2 m/s 606 mmHg 57%
    01:00 -6°C° 0 mm 2 m/s 605 mmHg 58%
    02:00 -7°C° 0 mm 3 m/s 605 mmHg 59%
    03:00 -7°C° 0 mm 3 m/s 605 mmHg 60%
    04:00 -7°C° 0 mm 3 m/s 605 mmHg 60%
    05:00 -8°C° 0 mm 3 m/s 605 mmHg 60%
    06:00 -8°C° 0 mm 3 m/s 605 mmHg 61%
    07:00 -7°C° 0 mm 3 m/s 605 mmHg 61%
    08:00 -6°C° 0 mm 3 m/s 605 mmHg 62%
    09:00 -6°C° 0 mm 3 m/s 606 mmHg 62%
    10:00 -4°C° 0 mm 3 m/s 606 mmHg 61%
    11:00 -2°C° 0 mm 3 m/s 606 mmHg 60%
    12:00 -1°C° 0 mm 3 m/s 606 mmHg 59%
    13:00 -1°C° 0 mm 2 m/s 606 mmHg 60%
    14:00 -1°C° 0 mm 2 m/s 606 mmHg 61%
    15:00 -1°C° 0 mm 2 m/s 605 mmHg 62%
    16:00 -1°C° 0 mm 2 m/s 605 mmHg 63%
    17:00 -2°C° 0 mm 2 m/s 605 mmHg 63%
    18:00 -3°C° 0 mm 2 m/s 605 mmHg 64%
    19:00 -3°C° 0,1 mm 2 m/s 605 mmHg 65%
    20:00 -3°C° 0,1 mm 2 m/s 605 mmHg 66%
    21:00 -3°C° 0,1 mm 2 m/s 605 mmHg 67%
    22:00 -3°C° 0,1 mm 2 m/s 605 mmHg 69%
    23:00 -4°C° 0,1 mm 2 m/s 605 mmHg 70%

    24 Janeiro, Quarta-feira

    Tempo Temperatura Precipitação Vento Pressão Humidade
    00:00 -4°C° 0,1 mm 2 m/s 605 mmHg 71%
    01:00 -4°C° 0 mm 2 m/s 605 mmHg 71%
    02:00 -4°C° 0 mm 2 m/s 606 mmHg 72%
    03:00 -4°C° 0 mm 2 m/s 606 mmHg 73%
    04:00 -5°C° 0 mm 2 m/s 606 mmHg 73%
    05:00 -5°C° 0 mm 2 m/s 606 mmHg 74%
    06:00 -6°C° 0 mm 2 m/s 606 mmHg 75%
    07:00 -3°C° 0 mm 1 m/s 606 mmHg 75%
    08:00 -3°C° 0 mm 1 m/s 607 mmHg 75%
    09:00 -2°C° 0 mm 1 m/s 607 mmHg 75%
    10:00 -3°C° 0 mm 2 m/s 607 mmHg 73%
    11:00 -2°C° 0 mm 2 m/s 608 mmHg 72%
    12:00 -1°C° 0 mm 2 m/s 608 mmHg 70%
    13:00 -1°C° 0,1 mm 2 m/s 608 mmHg 71%
    14:00 +1°C° 0,1 mm 1 m/s 608 mmHg 72%
    15:00 +1°C° 0,1 mm 1 m/s 608 mmHg 73%
    16:00 0°C° 0,2 mm 1 m/s 608 mmHg 75%
    17:00 -1°C° 0,2 mm 1 m/s 608 mmHg 77%
    18:00 -2°C° 0,2 mm 1 m/s 608 mmHg 80%
    19:00 -2°C° 0,3 mm 1 m/s 608 mmHg 81%
    20:00 -2°C° 0,3 mm 1 m/s 609 mmHg 83%
    21:00 -2°C° 0,3 mm 1 m/s 609 mmHg 84%
    22:00 -2°C° 0,2 mm 1 m/s 610 mmHg 85%
    23:00 -3°C° 0,2 mm 0 m/s 610 mmHg 85%

    25 Janeiro, Quinta-feira

    Tempo Temperatura Precipitação Vento Pressão Humidade
    00:00 -3°C° 0,2 mm 0 m/s 610 mmHg 86%
    01:00 -2°C° 0,2 mm 1 m/s 610 mmHg 87%
    02:00 -2°C° 0,2 mm 1 m/s 610 mmHg 87%
    03:00 -3°C° 0,2 mm 1 m/s 611 mmHg 88%
    04:00 -3°C° 0,1 mm 1 m/s 611 mmHg 88%
    05:00 -3°C° 0,1 mm 1 m/s 611 mmHg 88%
    06:00 -3°C° 0,1 mm 1 m/s 611 mmHg 88%
    07:00 -3°C° 0,1 mm 1 m/s 611 mmHg 87%
    08:00 -2°C° 0,1 mm 1 m/s 612 mmHg 86%
    09:00 -2°C° 0,1 mm 1 m/s 612 mmHg 85%
    10:00 -1°C° 0,1 mm 1 m/s 612 mmHg 83%
    11:00 0°C° 0,1 mm 1 m/s 612 mmHg 82%
    12:00 0°C° 0,1 mm 1 m/s 612 mmHg 80%
    13:00 0°C° 0,1 mm 1 m/s 612 mmHg 81%
    14:00 +1°C° 0,1 mm 1 m/s 612 mmHg 82%
    15:00 +1°C° 0,1 mm 1 m/s 612 mmHg 82%
    16:00 0°C° 0,1 mm 1 m/s 612 mmHg 84%
    17:00 -1°C° 0,1 mm 1 m/s 612 mmHg 86%
    18:00 -2°C° 0,1 mm 1 m/s 612 mmHg 88%
    19:00 -2°C° 0,2 mm 1 m/s 612 mmHg 89%
    20:00 -2°C° 0,2 mm 1 m/s 612 mmHg 89%
    21:00 -2°C° 0,2 mm 1 m/s 612 mmHg 90%
    22:00 -3°C° 0,2 mm 1 m/s 612 mmHg 90%
    23:00 -3°C° 0,2 mm 1 m/s 612 mmHg 90%
    Mostrar mais